Regional Weather Roundup
Issued by NWS Jackson, KY

Home | Current Version | Previous Version | Graphics & Text | Print | Product List | Glossary On
Versions: 1 2 3 4 5 6 7 8 9 10 11 12 13 14 15 16 17 18 19 20 21 22 23 24 25 26 27 28 29 30 31 32 33 34 35 36 37 38 39 40 41 42 43 44 45 46 47 48 49 50
000
ASUS43 KJKL 050910
RWRJKL

EAST KENTUCKY HOURLY WEATHER ROUNDUP
NATIONAL WEATHER SERVICE JACKSON KY
500 AM EDT TUE MAY 05 2015

NOTE: "FAIR" INDICATES FEW OR NO CLOUDS BELOW 12,000 FEET WITH
NO SIGNIFICANT WEATHER AND/OR OBSTRUCTIONS TO VISIBILITY.

* THESE REPORTS ARE NOT UNDER NWS QUALITY CONTROL AND MAY NOT
  REPORT WEATHER SUCH AS PRECIPITATION AND FOG.

KYZ079-080-083-085-087-088-110-112-115-119-120-051000
...EASTERN KENTUCKY...

CITY           SKY/WX    TMP DP  RH WIND       PRES   REMARKS
JACKSON        PTCLDY    61  50  67 VRB3      30.28R
LONDON         CLEAR     56  51  84 CALM      30.28R
SOMERSET*      CLEAR     54  54 100 CALM      30.28S
MONTICELLO*    CLEAR     52  52 100 CALM      30.30R
MIDDLESBORO*   CLEAR     50  50  99 CALM      30.32R
HARLAN APT*    SUNNY     52  52 100 E7        30.31R
HAZARD APT*    SUNNY     61  52  72 CALM      30.28R
BLACK MTN*       N/A     57  46  67 SW3         N/A
PIKEVILLE APT* CLEAR     61  50  67 S3        30.28R
BIG SANDY*     SUNNY     63  52  67 S6        30.27R
MOREHEAD APT*  CLOUDY    63  54  72 SW5       30.27R
$$

KYZ035-036-041-042-044-050-067-078-099-051000
...CENTRAL KENTUCKY...

CITY           SKY/WX    TMP DP  RH WIND       PRES   REMARKS
MT STERLING*   CLEAR     63  52  67 SW6       30.27R
FLEMING/MASON* PTCLDY    63  54  72 S7        30.25R
DANVILLE*      CLEAR     55  52  88 CALM      30.27R
RICHMOND*      CLEAR     64  50  59 S6        30.25S
LEXINGTON      CLEAR     60  53  77 S7        30.25R
FRANKFORT      CLEAR     58  53  84 CALM      30.23R
$$

KYZ091>093-OHZ055-061-077-WVZ005-015-034-035-042-051000
...SOUTHERN OHIO/WEST VIRGINIA...

CITY           SKY/WX    TMP DP  RH WIND       PRES   REMARKS
COVINGTON      PTCLDY    62  57  83 CALM      30.23R
COLUMBUS       RAIN      61  61 100 E6        30.21F FOG
DAYTON         LGT RAIN  62  60  93 N7        30.23S
WILMINGTON     MOCLDY    59  56  89 SE3       30.23S
HUNTINGTON     CLEAR     60  52  74 CALM      30.23R
CHARLESTON       N/A     60  54  80 CALM      30.24R
PINEVILLE*     CLEAR     51  51 100 MISG      30.35R
BECKLEY        CLEAR     60  44  55 S6        30.31R
BLUEFIELD      CLEAR     61  45  55 W6        30.33S
$$

VAZ002-007-008-TNZ017-027-036-066-071-051000
...SOUTHWEST VIRGINIA/EAST TENNESSEE...

CITY           SKY/WX    TMP DP  RH WIND       PRES   REMARKS
WISE*          CLEAR     57  43  58 SW5       30.35R
JONESVILLE*    PTSUNNY   50  50 100 CALM      30.33S
ABINGDON*      CLEAR     54  49  85 CALM      30.33R
BRISTOL        CLEAR     52  50  93 CALM      30.31R
OAK RIDGE      CLEAR     55  52  89 CALM      30.31R
CROSSVILLE     CLEAR     54  49  83 NW3       30.31R
NASHVILLE      PTCLDY    58  53  84 CALM      30.25R
$$

...KEY TO REMARKS...
VSB - VISIBILITY IN MILES
WCI - WIND CHILL INDEX
HX  - HEAT INDEX

$$


USA.gov is the U.S. government's official web portal to all federal, state and local government web resources and services.